Regional Weather Roundup
Issued by NWS Newport/Morehead, NC

Current Version | Previous Version | Graphics & Text | Print | Product List | Glossary Off
Versions: 1 2 3 4 5 6 7 8 9 10 11 12 13 14 15 16 17 18 19 20 21 22 23 24 25 26 27 28 29 30 31 32 33 34 35 36 37 38 39 40 41 42 43 44 45 46 47 48 49 50

000
ASUS42 KMHX 301913
RWRMHX
WEATHER ROUNDUP FOR EASTERN NORTH CAROLINA
NATIONAL WEATHER SERVICE NEWPORT/MOREHEAD CITY NC
300 PM EDT FRI SEP 30 2016

NOTE: "FAIR" INDICATES FEW OR NO CLOUDS BELOW 12,000 FEET
WITH NO SIGNIFICANT WEATHER AND/OR OBSTRUCTIONS TO VISIBILITY

NCZ015>017-031-032-045>047-102-103-302000-
NORTH COAST

CITY           SKY/WX    TMP DP  RH WIND       PRES   REMARKS
EDENTON        CLOUDY    80  80 100 E8        30.03F
ELIZABETH CITY CLOUDY    79  73  82 SE14      30.04F
KITTY HAWK     CLOUDY    84  77  80 SE8       30.04F
MANTEO         MOSUNNY   82  74  77 S9        30.05F

$$

NCZ045>047-081-094-103-104-302000-
CENTRAL COAST

CITY           SKY/WX    TMP DP  RH WIND       PRES   REMARKS
FRISCO         SUNNY     85  75  72 SE12      30.04F

$$

NCZ095-097-098-100-101-302000-
SOUTHERN COAST

CITY           SKY/WX    TMP DP  RH WIND       PRES   REMARKS
BEAUFORT       CLOUDY    77  73  87 SE5       30.04S
CEDAR ISLAND   NOT AVBL
JACKSONVILLE   PTSUNNY   76  72  87 SE8       30.01F
PINEY ISLAND   LGT RAIN N/A N/A N/A S8        30.03F
WILMINGTON     RAIN      76  72  87 SE7       29.99F


$$

NCZ011>013-027>030-043-044-078>080-089-090>093-098-302000-
COASTAL PLAIN

CITY           SKY/WX    TMP DP  RH WIND       PRES   REMARKS
AHOSKIE        LGT RAIN  74  74  97 CALM      30.01F
CLINTON        MOSUNNY   81  74  79 SE3       29.98F
ELIZABETHTOWN  CLOUDY    85  73  67 SE7       29.97F
GOLDSBORO      CLOUDY    78  74  88 S6        29.97F
GREENVILLE     CLOUDY    81  75  83 S7        30.02F
HAVELOCK       LGT RAIN  73  69  87 S12       30.02
KENANSVILLE    CLOUDY    77  70  78 SE7       30.00F
KINSTON        PTSUNNY   77  72  83 S7        30.00F
NEW BERN       CLOUDY    73  70  90 S5        30.02F
RICHLANDS      CLOUDY    75  72  90 E12       30.01F
ROCKY MOUNT    PTSUNNY   79  71  76 S7G17     29.99F
WASHINGTON     CLOUDY    76  74  92 S6        30.01F
WHITEVILLE     NOT AVBL

$$

AMZ130-135-150-152-154-156-158-170-250-252-270-ANZ085-086-088-633-658-670-302000-
MARINE OBSERVATIONS

STATION/POSITION TIME  TEMP    WIND        PRES    WAVE   SWELL
                       AIR SEA DIR/SP/G            HT/PER HT/PER
                 (UTC) (F)     (DEG/KT/KT) (MB)    (FT/S) (FT/S)
CHESAPEAKE LIGHT NOT AVBL
64 E VA BEACH    1850   76 76  150/  6/  8 1018.0    6/10   7/10
DUCK             1848   78 77  110/ 11/ 13 1016.9
2 E DUCK         1841      77                N/A     5/11   3/11
OREGON INLET     1848   80 78  120/  9/ 14 1017.3
13E OREGON INLT  1830      76                N/A     6/10   5/10
HATTERAS CG      1836   80 79  110/ 10/ 13 1016.8
DIAMOND BUOY     1850   80 78  140/  6/  6 1017.3    4/10   3/10
CAPE LOOKOUT     1800   74     290/  3/  4 1016.9
BEAUFORT LAB     1836   76 77  220/  1/  2 1016.3
30 SE NEW RVR IN 1808   75 82  300/ 14/ 23 1017.2
30 SE NEW RVR IN 1825      82                N/A     4/ 5   2/11
27 SE WRIGHTSVLE 1808   78 81  340/ 10/ 14 1017.4
5 SE WRIGHTSVLE  1808   76 80   70/  8/ 10 1017.4
225 S CAPE HAT   1850   82 83  180/ 12/ 16 1017.7    4/10   3/10
41 SE CHARLESTON 1850   82 83  210/ 10/ 10 1015.1    3/ 5   3/ 5

$$



USA.gov is the U.S. government's official web portal to all federal, state and local government web resources and services.